Location: Bercimuel
(41.3983°N, 3.5711°W)
Time: 07:23:07
(UTC+00:00)

Okean 1 Rocket - Pass Details

Date: 15 May 2026
Orbit: 600 x 626 km, 82.5° (Epoch: 6 June)

Event Time Altitude Azimuth Distance (km) Brightness Sun altitude
Rises 19:54:58 0° 191° (SSW) 2,871 6.3 -5.5°
Reaches altitude 10° 19:57:10 10° 194° (SSW) 1,975 5.5 -5.9°
Maximum altitude 20:01:33 72° 279° (W) 657 3.4 -6.6°
Drops below altitude 10° 20:05:59 10° 4° (N) 2,003 6.1 -7.3°
Sets 20:08:14 0° 6° (N) 2,917 6.9 -7.6°
